Regional Weather Roundup
Issued by NWS

Home | Current Version | Previous Version | Graphics & Text | Print | Product List | Glossary On
Versions: 1 2 3 4 5 6 7 8 9 10 11 12 13 14 15 16 17 18 19 20 21 22 23 24 25 26 27 28 29 30 31 32 33 34 35 36 37 38 39 40 41 42 43 44 45 46 47 48 49 50
000
ASUS43 KFSD 172310
RWRSD

WEATHER ROUNDUP FOR SOUTH DAKOTA
NATIONAL WEATHER SERVICE SIOUX FALLS SD
500 PM CST FRI NOV 17 2017

NOTE: "FAIR" INDICATES FEW OR NO CLOUDS BELOW 12,000 FEET WITH NO
SIGNIFICANT WEATHER AND/OR OBSTRUCTIONS TO VISIBILITY.


SDZ001>005-009-010-012>017-180000-
NORTHWEST AND NORTH CENTRAL SOUTH DAKOTA

CITY           SKY/WX    TMP DP  RH WIND       PRES   REMARKS
BUFFALO          N/A     40  31  70 SW9       29.60R
FAITH            N/A     39  39 100 CALM      29.67R
MOBRIDGE       CLOUDY    40  28  62 N7        29.65F
$$

SDZ012>016-024>037-041>051-057-063-072>074-180000-
SOUTHWEST AND SOUTH CENTRAL SOUTH DAKOTA

CITY           SKY/WX    TMP DP  RH WIND       PRES   REMARKS
RAPID CTY ARPT CLOUDY    39  37  92 N8        29.67R
PIERRE         CLOUDY    41  36  82 NE6       29.66S
CUSTER         CLOUDY    34  31  88 W5        29.62R WCI  30
ELLSWORTH AFB  LGT RAIN  39  39 100 N8        29.67
PHILIP         LGT RAIN  41  40  96 N7        29.68R
PINE RIDGE     CLOUDY    44  31  60 CALM      29.64S
SPEARFISH      FAIR      37  36  93 CALM      29.67R
WINNER         MOCLDY    45  35  68 N8        29.67R
$$

SDZ004>011-016>023-039-040-180000-
NORTHEAST SOUTH DAKOTA

CITY           SKY/WX    TMP DP  RH WIND       PRES   REMARKS
ABERDEEN       CLOUDY    37  23  56 N8        29.70R
WATERTOWN      CLOUDY    37  32  82 NE9       29.64R
BROOKINGS      CLOUDY    39  32  76 N8        29.65R
SISSETON         N/A     35  25  66 N7        29.67R WCI  29
$$

SDZ017-020-022-023-036>040-048>070-180000-
SOUTHEAST SOUTH DAKOTA

CITY           SKY/WX    TMP DP  RH WIND       PRES   REMARKS
SIOUX FALLS    LGT RAIN  47  36  65 N12G17    29.62R
HURON          CLOUDY    43  31  62 N12       29.66R
CHAMBERLAIN    CLOUDY    45  37  72 NW8       29.66R
MITCHELL       CLOUDY    44  33  65 N9        29.65R
YANKTON        LGT RAIN  44  39  82 NW13      29.63R
$$

ABBREVIATIONS USED IN REMARKS
   TC - TEMPERATURE IN CELSIUS
  WCI - WIND CHILL INDEX
   HX - HEAT INDEX
  VSB - VISIBILITY




USA.gov is the U.S. government's official web portal to all federal, state and local government web resources and services.